User: anonymous   Login
Location: ??????
(33.3472°N, 35.4764°E)
Time: 11:13:10
(UTC+00:00)
Language:

Cosmos 2263 Rocket - Orbit

View from above orbital plane
View from above orbital plane
View from above satellite
View from above satellite

Ground track
Ground track

The orbit data is extracted from the following two-line orbital elements,

1 22803U 93059B   19295.90944543 -.00000055 +00000-0 -37029-5 0  9993
2 22803 070.9901 241.9648 0016580 166.9777 193.1778 14.16814188349510
Epoch (UTC): 22 October 2019 21:49:36
Eccentricity: 0.0016580
inclination: 70.9901°
perigee height: 824 km
apogee height: 848 km
right ascension of ascending node: 241.9648°
argument of perigee: 166.9777°
revolutions per day: 14.16814188
mean anomaly at epoch: 193.1778°
orbit number at epoch: 34951

The dashed part of the orbit path shows where the satellite is in the earth's shadow,  

DLR